Location: Alpha Ridge Park
(39.3209°N, 76.9128°W)
Time: 19:05:07
(UTC-04:00)

Vanguard 2 Rocket - Pass Details

Date: 24 May 2019
Orbit: 554 x 3326 km, 32.9° (Epoch: 15 June)

Event Time Altitude Azimuth Distance (km) Brightness Sun altitude
Rises 11:07:45 0° 275° (W) 6,035 10.8 58.9°
Reaches altitude 10° 11:12:36 10° 270° (W) 4,563 10.3 59.7°
Maximum altitude 11:23:08 43° 205° (SSW) 1,813 9.1 61.5°
Drops below altitude 10° 11:29:19 10° 135° (SE) 2,695 9.9 62.5°
Sets 11:31:30 0° 127° (SE) 3,404 10.3 62.8°
